Elmira, NY

7:54 AM EST on December 16, 2019 (GMT -0500)
Elmira-Corning Regional

Weather History for KELM - October, 2019

Change the Weather History Date:

Friday, October 11, 2019

  Actual Average Record
Temperature  
Mean Temperature 54 °F -  
Max Temperature 71 °F 60 °F 90 °F (1949)
Min Temperature 39 °F 38 °F 21 °F (1929)
Degree Days  
Heating Degree Days 10    
Growing Degree Days 4 (Base 50)    
Moisture  
Dew Point 43 °F    
Average Humidity 88    
Maximum Humidity 100    
Minimum Humidity 39    
Precipitation  
Precipitation 0.00 in - - ()
Sea Level Pressure  
Sea Level Pressure 30.22 in    
Wind  
Wind Speed 2 mph (WSW)    
Max Wind Speed 7 mph    
Max Gust Speed -    
Visibility 4 miles    
Events Fog    
Averages and records for this station are not official NWS values.
T = Trace of Precipitation, MM = Missing Value Source: NWS Daily Summary

Daily Weather History Graph

Daily Weather History Graph

Search for Another Location

Airport or City:

Astronomy

Oct. 11, 2019 Rise Set
Actual Time 7:15 AM EDT 6:32 PM EDT
Civil Twilight 6:47 AM EDT 7:00 PM EDT
Nautical Twilight 6:14 AM EDT 7:33 PM EDT
Astronomical Twilight 5:42 AM EDT 8:05 PM EDT
Moon 6:04 PM EDT (10/11) 4:49 AM EDT (10/11)
Length of Visible Light 12h 13m
Length of Day
11h 17m
Waxing Gibbous, 96% of the Moon is Illuminated
Oct 11
Waxing Gibbous
Oct 13
Full
Oct 21
Last Quarter
Oct 27
New
Nov 4
First Quarter

Hourly Weather History & Observations

Time (EDT) Temp. Windchill Dew Point Humidity Pressure Visibility Wind Dir Wind Speed Gust Speed Precip Events Conditions
12:03 AM 41.0 °F - 41.0 °F 100% 30.25 in 0.5 mi Calm Calm - N/A Fog Fog
12:10 AM 42.1 °F - 42.1 °F 100% 30.25 in 0.8 mi Calm Calm - N/A   Mist
12:22 AM 43.0 °F 40.3 °F 42.1 °F 97% 30.25 in 1.5 mi SW 4.6 mph - N/A   Partly Cloudy
12:24 AM 43.0 °F 41.3 °F 42.1 °F 97% 30.25 in 5.0 mi SW 3.5 mph - N/A   Partly Cloudy
12:36 AM 44.1 °F 41.5 °F 43.0 °F 96% 30.25 in 1.5 mi WSW 4.6 mph - N/A   Partly Cloudy
12:42 AM 44.1 °F 41.5 °F 44.1 °F 100% 30.25 in 0.8 mi SW 4.6 mph - N/A   Mist
12:53 AM 43.0 °F - 42.1 °F 97% 30.26 in 0.2 mi Calm Calm - N/A Fog Fog
1:03 AM 42.1 °F - 42.1 °F 100% 30.25 in 0.2 mi Calm Calm - N/A Fog Fog
1:18 AM 42.1 °F 40.2 °F 41.0 °F 96% 30.25 in 0.5 mi SW 3.5 mph - N/A Fog Fog
1:25 AM 42.1 °F 40.2 °F 42.1 °F 100% 30.25 in 0.2 mi SSW 3.5 mph - N/A Fog Fog
1:53 AM 41.0 °F - 41.0 °F 100% 30.26 in 0.2 mi Calm Calm - N/A Fog Fog
2:53 AM 39.0 °F 36.8 °F 39.0 °F 100% 30.26 in 0.2 mi West 3.5 mph - N/A Fog Fog
3:53 AM 39.9 °F - 39.9 °F 100% 30.27 in 0.2 mi Calm Calm - N/A Fog Fog
4:45 AM 39.9 °F - 39.9 °F 100% 30.26 in 0.2 mi Calm Calm - N/A Fog Fog
4:53 AM 39.9 °F - 39.9 °F 100% 30.27 in 0.2 mi Calm Calm - N/A Fog Fog
5:14 AM 39.0 °F - 39.0 °F 100% 30.25 in 0.2 mi Calm Calm - N/A Fog Fog
5:53 AM 41.0 °F 38.0 °F 41.0 °F 100% 30.27 in 0.2 mi WNW 4.6 mph - N/A Fog Fog
6:53 AM 42.1 °F 39.2 °F 42.1 °F 100% 30.27 in 0.2 mi WNW 4.6 mph - N/A Fog Fog
7:53 AM 39.9 °F 36.7 °F 39.9 °F 100% 30.28 in 0.2 mi WNW 4.6 mph - N/A Fog Fog
8:19 AM 41.0 °F 39.0 °F 41.0 °F 100% 30.27 in 0.2 mi WNW 3.5 mph - N/A Fog Fog
8:42 AM 41.0 °F 39.0 °F 41.0 °F 100% 30.26 in 0.2 mi WNW 3.5 mph - N/A Fog Fog
8:53 AM 42.1 °F 39.2 °F 41.0 °F 96% 30.28 in 0.2 mi West 4.6 mph - N/A Fog Fog
9:01 AM 41.0 °F - 41.0 °F 100% 30.26 in 0.2 mi Calm Calm - N/A Fog Fog
9:53 AM 44.1 °F 40.1 °F 44.1 °F 100% 30.28 in 0.8 mi SSW 6.9 mph - N/A   Mist
10:01 AM 44.1 °F 41.5 °F 44.1 °F 100% 30.26 in 1.2 mi SW 4.6 mph - N/A   Overcast
10:07 AM 44.1 °F 42.5 °F 44.1 °F 100% 30.26 in 3.0 mi SW 3.5 mph - N/A   Overcast
10:38 AM 46.0 °F 43.9 °F 46.0 °F 100% 30.25 in 10.0 mi SSW 4.6 mph - N/A   Scattered Clouds
10:53 AM 48.9 °F - 46.0 °F 90% 30.26 in 10.0 mi WSW 3.5 mph - N/A   Scattered Clouds
11:53 AM 59.0 °F - 43.0 °F 55% 30.23 in 10.0 mi Calm Calm - N/A   Clear
12:53 PM 64.0 °F - 41.0 °F 43% 30.19 in 10.0 mi Calm Calm - N/A   Clear
1:53 PM 66.9 °F - 43.0 °F 42% 30.16 in 10.0 mi Calm Calm - N/A   Clear
2:53 PM 69.1 °F - 43.0 °F 39% 30.13 in 7.0 mi Calm Calm - N/A   Clear
3:53 PM 70.0 °F - 45.0 °F 41% 30.12 in 10.0 mi East 5.8 mph - N/A   Clear
4:53 PM 69.1 °F - 46.9 °F 45% 30.10 in 10.0 mi Variable 4.6 mph - N/A   Clear
5:53 PM 68.0 °F - 48.0 °F 49% 30.10 in 10.0 mi Calm Calm - N/A   Clear
6:53 PM 60.1 °F - 46.9 °F 62% 30.10 in 10.0 mi ENE 6.9 mph - N/A   Clear
7:53 PM 52.0 °F - 46.0 °F 80% 30.11 in 10.0 mi Calm Calm - N/A   Clear
8:53 PM 48.9 °F - 46.0 °F 90% 30.11 in 10.0 mi Calm Calm - N/A   Clear
9:53 PM 46.9 °F - 44.1 °F 90% 30.11 in 10.0 mi Calm Calm - N/A   Clear
10:53 PM 43.0 °F 41.3 °F 42.1 °F 97% 30.08 in 10.0 mi West 3.5 mph - N/A   Clear
11:53 PM 42.1 °F - 41.0 °F 96% 30.07 in 10.0 mi Calm Calm - N/A   Clear